カタログに戻る

COSMOS 894 DEB

運用中PO
NORAD 45506·DEBRIS·🇷🇺 Russia

打ち上げ Feb 21, 1977 から Plesetsk Cosmodrome

Loading…

次のパス (今後24時間)

TLE

最新Source: Space-Track

元期: Sep 14, 2026, 07:17 UTC

1 45506U 77013C   26257.30377561  .00000565  00000-0  53169-3 0  9995
2 45506  82.9447  17.7105 0026465 270.9703  88.8424 13.79638866625293

AllMySatでCOSMOS 894 DEBをリアルタイム追跡

Download on the App Store